Location: ????????
(56.1167°N, 38.6333°E)
Time: 22:02:03
(UTC+00:00)

Cosmos 44 Rocket - Pass Details

Date: 18 November 2025
Orbit: 637 x 741 km, 65.1° (Epoch: 06 December)

Event Time Altitude Azimuth Distance (km) Brightness Sun altitude
Rises 15:00:17 0° 197° (SSW) 2,999 7.0 -14.6°
Reaches altitude 10° 15:02:42 10° 189° (S) 2,106 6.1 -14.9°
Maximum altitude 15:07:04 37° 123° (ESE) 1,079 3.9 -15.5°
Enters shadow 15:08:58 27° 79° (E) 1,344 4.2 -15.8°
